• In Czech Republic
  • List of Countries
  • For 7 days
  • Water Temperature
  • Satellite Maps
  • Weather Map
  • Weather Widgets
  • user-avatar
    Login

    Hourly Weather Kapan

    Today, 20 May, Sunday

    Time Temperature Precipitation Wind Pressure Humidity
    00:00 +18°C° 0.1 mm 1 mps 686 mmHg 69%
    01:00 +18°C° 0 mm 1 mps 686 mmHg 68%
    02:00 +18°C° 0 mm 1 mps 686 mmHg 68%
    03:00 +18°C° 0 mm 1 mps 685 mmHg 66%
    04:00 +18°C° 0 mm 1 mps 686 mmHg 64%
    05:00 +19°C° 0 mm 1 mps 686 mmHg 62%
    06:00 +20°C° 0 mm 1 mps 686 mmHg 60%
    07:00 +22°C° 0 mm 1 mps 686 mmHg 55%
    08:00 +23°C° 0 mm 1 mps 686 mmHg 49%
    09:00 +25°C° 0 mm 2 mps 687 mmHg 42%
    10:00 +26°C° 0 mm 2 mps 687 mmHg 40%
    11:00 +27°C° 0 mm 2 mps 687 mmHg 39%
    12:00 +27°C° 0 mm 3 mps 686 mmHg 37%
    13:00 +27°C° 0.1 mm 3 mps 686 mmHg 38%
    14:00 +27°C° 0.1 mm 3 mps 686 mmHg 38%
    15:00 +27°C° 0.1 mm 3 mps 685 mmHg 39%
    16:00 +26°C° 0.2 mm 3 mps 685 mmHg 44%
    17:00 +25°C° 0.2 mm 2 mps 685 mmHg 49%
    18:00 +24°C° 0.2 mm 2 mps 685 mmHg 54%
    19:00 +21°C° 0.5 mm 2 mps 685 mmHg 61%
    20:00 +21°C° 0.5 mm 1 mps 685 mmHg 67%
    21:00 +19°C° 0.5 mm 1 mps 685 mmHg 73%
    22:00 +19°C° 0.2 mm 1 mps 685 mmHg 73%
    23:00 +19°C° 0.2 mm 1 mps 685 mmHg 74%

    Tomorrow, 21 May, Monday

    Time Temperature Precipitation Wind Pressure Humidity
    00:00 +19°C° 0.2 mm 1 mps 685 mmHg 74%
    01:00 +19°C° 0 mm 1 mps 685 mmHg 73%
    02:00 +19°C° 0 mm 1 mps 685 mmHg 73%
    03:00 +18°C° 0 mm 1 mps 684 mmHg 73%
    04:00 +19°C° 0.1 mm 1 mps 685 mmHg 70%
    05:00 +18°C° 0.1 mm 0 mps 685 mmHg 68%
    06:00 +18°C° 0.1 mm 0 mps 685 mmHg 66%
    07:00 +22°C° 0 mm 1 mps 685 mmHg 59%
    08:00 +23°C° 0 mm 1 mps 686 mmHg 53%
    09:00 +25°C° 0 mm 2 mps 686 mmHg 46%
    10:00 +26°C° 0 mm 2 mps 686 mmHg 44%
    11:00 +27°C° 0 mm 3 mps 686 mmHg 41%
    12:00 +28°C° 0 mm 3 mps 686 mmHg 38%
    13:00 +28°C° 0.2 mm 3 mps 685 mmHg 39%
    14:00 +27°C° 0.2 mm 3 mps 685 mmHg 40%
    15:00 +27°C° 0.2 mm 3 mps 685 mmHg 41%
    16:00 +25°C° 1.5 mm 3 mps 685 mmHg 51%
    17:00 +23°C° 1.5 mm 2 mps 685 mmHg 60%
    18:00 +20°C° 1.5 mm 2 mps 684 mmHg 70%
    19:00 +19°C° 0.7 mm 2 mps 685 mmHg 73%
    20:00 +20°C° 0.7 mm 1 mps 685 mmHg 76%
    21:00 +19°C° 0.7 mm 1 mps 685 mmHg 79%
    22:00 +19°C° 0 mm 1 mps 685 mmHg 78%
    23:00 +19°C° 0 mm 1 mps 685 mmHg 77%

    Day after tomorrow, 22 May, Tuesday

    Time Temperature Precipitation Wind Pressure Humidity
    00:00 +19°C° 0 mm 1 mps 685 mmHg 76%
    01:00 +19°C° 0 mm 1 mps 685 mmHg 76%
    02:00 +18°C° 0 mm 1 mps 685 mmHg 76%
    03:00 +18°C° 0 mm 1 mps 685 mmHg 76%
    04:00 +19°C° 0 mm 1 mps 685 mmHg 75%
    05:00 +19°C° 0 mm 1 mps 685 mmHg 74%
    06:00 +19°C° 0 mm 1 mps 686 mmHg 73%
    07:00 +20°C° 0.2 mm 2 mps 686 mmHg 67%
    08:00 +21°C° 0.2 mm 2 mps 686 mmHg 61%
    09:00 +23°C° 0.2 mm 2 mps 687 mmHg 56%
    10:00 +24°C° 0.3 mm 2 mps 687 mmHg 52%
    11:00 +25°C° 0.3 mm 3 mps 687 mmHg 49%
    12:00 +26°C° 0.3 mm 3 mps 687 mmHg 45%
    13:00 +26°C° 0.7 mm 3 mps 686 mmHg 46%
    14:00 +26°C° 0.7 mm 3 mps 686 mmHg 47%
    15:00 +25°C° 0.7 mm 4 mps 686 mmHg 48%
    16:00 +24°C° 0.3 mm 3 mps 686 mmHg 50%
    17:00 +24°C° 0.3 mm 3 mps 686 mmHg 52%
    18:00 +22°C° 0.3 mm 3 mps 686 mmHg 55%
    19:00 +20°C° 0 mm 2 mps 686 mmHg 57%
    20:00 +19°C° 0 mm 2 mps 686 mmHg 60%
    21:00 +18°C° 0 mm 2 mps 687 mmHg 62%
    22:00 +17°C° 0.1 mm 2 mps 686 mmHg 62%
    23:00 +17°C° 0.1 mm 2 mps 686 mmHg 62%

    23 May, Wednesday

    Time Temperature Precipitation Wind Pressure Humidity
    00:00 +17°C° 0.1 mm 2 mps 686 mmHg 62%
    01:00 +16°C° 0.1 mm 2 mps 686 mmHg 61%
    02:00 +16°C° 0.1 mm 2 mps 686 mmHg 59%
    03:00 +16°C° 0.1 mm 2 mps 686 mmHg 58%
    04:00 +17°C° 0 mm 2 mps 686 mmHg 56%
    05:00 +17°C° 0 mm 2 mps 686 mmHg 55%
    06:00 +18°C° 0 mm 2 mps 686 mmHg 53%
    07:00 +19°C° 0 mm 2 mps 687 mmHg 48%
    08:00 +21°C° 0 mm 2 mps 687 mmHg 43%
    09:00 +24°C° 0 mm 2 mps 687 mmHg 37%
    10:00 +25°C° 0 mm 3 mps 687 mmHg 36%
    11:00 +26°C° 0 mm 3 mps 687 mmHg 34%
    12:00 +26°C° 0 mm 4 mps 687 mmHg 32%
    13:00 +26°C° 0 mm 4 mps 686 mmHg 32%
    14:00 +27°C° 0 mm 4 mps 686 mmHg 33%
    15:00 +27°C° 0 mm 4 mps 685 mmHg 33%
    16:00 +25°C° 0 mm 4 mps 685 mmHg 36%
    17:00 +24°C° 0 mm 3 mps 685 mmHg 39%
    18:00 +22°C° 0 mm 3 mps 685 mmHg 42%
    19:00 +21°C° 0 mm 3 mps 684 mmHg 45%
    20:00 +19°C° 0 mm 3 mps 684 mmHg 48%
    21:00 +17°C° 0 mm 2 mps 684 mmHg 51%
    22:00 +17°C° 0 mm 2 mps 684 mmHg 50%
    23:00 +17°C° 0 mm 2 mps 684 mmHg 49%

    24 May, Thursday

    Time Temperature Precipitation Wind Pressure Humidity
    00:00 +16°C° 0 mm 2 mps 684 mmHg 49%
    01:00 +16°C° 0 mm 2 mps 684 mmHg 46%
    02:00 +16°C° 0 mm 2 mps 683 mmHg 43%
    03:00 +16°C° 0 mm 2 mps 683 mmHg 40%
    04:00 +16°C° 0 mm 2 mps 683 mmHg 38%
    05:00 +17°C° 0 mm 2 mps 683 mmHg 37%
    06:00 +18°C° 0 mm 2 mps 683 mmHg 36%
    07:00 +19°C° 0 mm 2 mps 684 mmHg 32%
    08:00 +21°C° 0 mm 2 mps 684 mmHg 28%
    09:00 +23°C° 0 mm 2 mps 684 mmHg 23%
    10:00 +24°C° 0 mm 2 mps 684 mmHg 23%
    11:00 +25°C° 0 mm 2 mps 684 mmHg 22%
    12:00 +26°C° 0 mm 3 mps 684 mmHg 21%
    13:00 +26°C° 0 mm 3 mps 683 mmHg 22%
    14:00 +26°C° 0 mm 3 mps 683 mmHg 22%
    15:00 +26°C° 0 mm 3 mps 683 mmHg 23%
    16:00 +25°C° 0 mm 3 mps 682 mmHg 26%
    17:00 +25°C° 0 mm 3 mps 682 mmHg 29%
    18:00 +24°C° 0 mm 3 mps 682 mmHg 33%
    19:00 +21°C° 0 mm 2 mps 682 mmHg 35%
    20:00 +19°C° 0 mm 2 mps 682 mmHg 38%
    21:00 +17°C° 0 mm 2 mps 682 mmHg 41%
    22:00 +16°C° 0 mm 2 mps 682 mmHg 41%
    23:00 +16°C° 0 mm 2 mps 681 mmHg 42%

    25 May, Friday

    Time Temperature Precipitation Wind Pressure Humidity
    00:00 +16°C° 0 mm 2 mps 681 mmHg 42%
    01:00 +16°C° 0 mm 2 mps 681 mmHg 42%
    02:00 +15°C° 0 mm 2 mps 681 mmHg 42%
    03:00 +15°C° 0 mm 2 mps 681 mmHg 42%
    04:00 +16°C° 0 mm 2 mps 681 mmHg 42%
    05:00 +18°C° 0 mm 1 mps 682 mmHg 42%
    06:00 +19°C° 0 mm 1 mps 682 mmHg 42%
    07:00 +21°C° 0 mm 1 mps 682 mmHg 39%
    08:00 +22°C° 0 mm 1 mps 683 mmHg 35%
    09:00 +24°C° 0 mm 2 mps 683 mmHg 31%
    10:00 +25°C° 0 mm 2 mps 683 mmHg 31%
    11:00 +26°C° 0 mm 2 mps 682 mmHg 31%
    12:00 +27°C° 0 mm 2 mps 682 mmHg 31%
    13:00 +27°C° 0 mm 2 mps 682 mmHg 31%
    14:00 +27°C° 0 mm 3 mps 682 mmHg 32%
    15:00 +28°C° 0 mm 3 mps 682 mmHg 32%
    16:00 +27°C° 0.1 mm 3 mps 682 mmHg 36%
    17:00 +26°C° 0.1 mm 2 mps 681 mmHg 39%
    18:00 +25°C° 0.1 mm 2 mps 681 mmHg 42%
    19:00 +23°C° 0.1 mm 2 mps 681 mmHg 47%
    20:00 +21°C° 0.1 mm 1 mps 682 mmHg 51%
    21:00 +19°C° 0.1 mm 1 mps 682 mmHg 55%
    22:00 +19°C° 0 mm 1 mps 682 mmHg 56%
    23:00 +19°C° 0 mm 1 mps 682 mmHg 56%
    Show more